Regional Weather Roundup
Issued by NWS

Home | Current Version | Previous Version | Graphics & Text | Print | Product List | Glossary On
Versions: 1 2 3 4 5 6 7 8 9 10 11 12 13 14 15 16 17 18 19 20 21 22 23 24 25 26 27 28 29 30 31 32 33 34 35 36 37 38 39 40 41 42 43 44 45 46 47 48 49 50
000
ASUS45 KCYS 310110
RWRWY

WYOMING REGIONAL WEATHER ROUNDUP
NATIONAL WEATHER SERVICE CHEYENNE WY
700 PM MDT SUN AUG 30 2015

NOTE:  "FAIR" INDICATES FEW OR NO CLOUDS BELOW 12,000 FEET
WITH NO SIGNIFICANT WEATHER AND/OR OBSTRUCTIONS TO VISIBILITY.

WYZ001-310200-
YELLOWSTONE NATIONAL PARK

CITY           SKY/WX    TMP DP  RH WIND       PRES   REMARKS
LK YELLOWSTONE   N/A     61  31  32 W8        30.15R
W YELLOWSTONE  NOT AVBL

$$
WYZ002>013-054>058-071-098>099-310200-
NORTHERN WYOMING

CITY           SKY/WX    TMP DP  RH WIND       PRES   REMARKS
JACKSON        SUNNY     70  39  32 SW9       30.05S
CODY           FAIR      81  36  19 SW13G25   29.85S
GREYBULL       FAIR      89  43  20 CALM      29.74F
WORLAND        FAIR      83  43  24 SW12G31   29.80R
SHERIDAN       FAIR      77  52  41 W3        29.79F
BUFFALO        FAIR      75  50  41 N8        29.86F
GILLETTE       FAIR      79  52  38 CALM      29.82F
HULETT         FAIR      77  52  41 E6        29.84F
NEWCASTLE      FAIR      86  39  19 MISG      29.84S

$$
WYZ014>020-022>026-101>103-310200-
CENTRAL WYOMING

CITY           SKY/WX    TMP DP  RH WIND       PRES   REMARKS
BIG PINEY      FAIR      71  35  26 W16       30.10R
PINEDALE       FAIR      72  32  23 SW14G23   30.09S
DUBOIS         FAIR      70  32  24 NW14G21   30.06S
LANDER         FAIR      73  51  46 S13       29.94F
RIVERTON       FAIR      76  45  33 S8        29.94S
CASPER         FAIR      76  40  27 SW13      29.96F
DOUGLAS        FAIR      80  45  28 NW7       29.93R

$$
WYZ021-027>030-104>119-310200-
SOUTHERN WYOMING

CITY           SKY/WX    TMP DP  RH WIND       PRES   REMARKS
EVANSTON       FAIR      76  39  26 W16       30.11S
KEMMERER       FAIR      72  34  25 W21G30    30.12S
FORT BRIDGER   PTCLDY    70  46  43 S12G22    30.14S
ROCK SPRINGS   MOCLDY    71  50  47 W14       30.11R
DIXON          CLOUDY    73  41  31 W12G22    30.19R
RAWLINS        LGT RAIN  70  44  39 W24G32    30.14R
SARATOGA       FAIR      70  45  40 W10       30.15S
LARAMIE        FAIR      72  44  36 E3        30.13F
CHEYENNE       FAIR      80  43  26 N14       30.05R
TORRINGTON     FAIR      85  43  22 N10       29.85F
PINE BLUFFS    FAIR      84  34  16 W9        29.95S

$$


USA.gov is the U.S. government's official web portal to all federal, state and local government web resources and services.